Regional Weather Roundup
Issued by NWS Cleveland, OH

Home | Current Version | Previous Version | Text Only | Print | Product List | Glossary Off
Versions: 1 2 3 4 5 6 7 8 9 10 11 12 13 14 15 16 17 18 19 20 21 22 23 24 25 26 27 28 29 30 31 32 33 34 35 36 37 38 39 40 41 42 43 44 45 46 47 48 49 50

000
ASUS41 KCLE 041702
RWRCLE
OHIO REGIONAL WEATHER ROUNDUP
NATIONAL WEATHER SERVICE CLEVELAND, OH
100 PM EDT WED MAY 04 2016

NOTE: "FAIR" INDICATES FEW OR NO CLOUDS BELOW 12,000 FEET WITH NO
SIGNIFICANT WEATHER AND/OR OBSTRUCTIONS TO VISIBILITY.

OHZ001>008-015>018-024>027-034-035-043-044-041800-
   NORTHWEST OHIO

CITY           SKY/WX    TMP DP  RH WIND       PRES   REMARKS
DEFIANCE       CLOUDY    52  45  77 NW10      29.59S
FINDLAY        CLOUDY    57  43  59 SW21      29.59F
TOLEDO EXPRESS CLOUDY    58  45  62 S13G20    29.56F
TOLEDO EXEC    CLOUDY    59  47  64 S10       29.59F
LIMA           CLOUDY    53  50  89 S15       29.60F
$$

OHZ009>014-019>023-028>033-038-089-041800-
   NORTHEAST OHIO

CITY           SKY/WX    TMP DP  RH WIND       PRES   REMARKS
CLE-HOPKINS    CLOUDY    64  39  39 S8        29.64F
CLE-LAKEFRONT  PTSUNNY   65  36  34 E8        29.61F
CUY CO. ARPT   PTSUNNY   63  43  48 S6        29.65F
LORAIN-ELYRIA  CLOUDY    62  40  44 SW12      29.61F
ASHTABULA      MOSUNNY   60  36  40 SE7       29.67F
AKRON-CANTON   PTSUNNY   62  40  44 SE9       29.64F
WOOSTER        LGT RAIN  58  43  57 VRB3      29.64F
MANSFIELD      PTSUNNY   61  43  51 S13       29.61F
YOUNGSTOWN     CLOUDY    58  40  51 S8        29.66F
$$

OHZ042-051>053-060>062-070>072-077>081-041800-
  SOUTHWEST OHIO

CITY           SKY/WX    TMP DP  RH WIND       PRES   REMARKS
CINC-COVINGTON LGT RAIN  52  47  83 SW8       29.69F
CINC-LUNKEN    LGT RAIN  54  49  83 SW9       29.70F
HAMILTON       CLOUDY    52  49  89 SW7       29.69F
DAYTON         CLOUDY    51  49  92 S10       29.66F
WRIGHT-PAT AFB LGT RAIN  53  51  94 SW10      29.65F
DAYTON GENERAL LGT RAIN  52  46  80 SW14G21   29.67S
WILMINGTON     LGT RAIN  52  45  77 W18       29.68R
$$

OHZ036-037-039>041-045>050-054>059-063>069-073>076-082>088-041800-
  CENTRAL AND SOUTHEAST OHIO

CITY           SKY/WX    TMP DP  RH WIND       PRES   REMARKS
COLUMBUS       CLOUDY    59  44  57 SW17G24   29.63F
OSU AIRPORT    CLOUDY    59  43  55 SW16G24   29.63F
BOLTON FIELD   CLOUDY    59  45  58 W21G26    29.64F
RICKENBACK AFB NOT AVBL
NEWARK         PTSUNNY   66  44  45 SW13G21   29.62F
MARION         CLOUDY    58  45  62 SW16G22   29.63F
LANCASTER      CLOUDY    61  45  55 SW10G16   29.64F
ZANESVILLE     PTSUNNY   65  41  41 S9        29.65F
NEW PHILLY     MOSUNNY   63  35  35 SW9       29.65F
$$



USA.gov is the U.S. government's official web portal to all federal, state and local government web resources and services.